SCP
1 0 0 0 0 0 0 0 0 0 0 0 0 0 0 0 0 0 0 0 0 0 0 0 0 0 0 0 0 0 0 0 0 0 0 0 0 0
1 1 1 0 0 0 0 0 0 0 0 0 0 0 0 0 0 0 0 0 0 0 0 0 0 0 0 0 0 0 0 0 0 0 0 0 0 0
1 1 1 1 1 1 1 1 0 0 0 0 0 0 0 0 0 0 0 0 0 0 0 0 0 0 0 0 0 0 0 0 0 0 0 0 0 0
1 1 1 1 1 1 1 1 0 0 0 0 0 0 1 1 1 1 0 0 0 0 0 0 0 0 0 0 -0 -0 0 0 0 0 0 0 0 0
1 1 1 1 1 1 1 1 0 0 0 0 0 0 0 1 1 1 0 0 0 0 0 0 0 0 0 0 0 0 0 0 0 0 0 0 0 0
1 1 1 1 1 1 1 1 0 0 0 0 0 0 0 0 0 0 0 0 0 0 0 0 0 0 0 0 0 0 0 0 0 0 0 0 0 0
0 0 0 0 0 0 0 0 0 0 0 0 0 0 0 0 0 0 0 0 0 0 0 0 0 0 0 0 0 0 0 0 0 0 0 0 0 0
0 0 0 0 0 0 0 0 0 0 0 0 0 0 0 0 0 0 0 0 0 0 0 0 0 0 0 0 0 0 0 0 0 0 0 -0 0 0
0 0 0 0 0 0 0 0 0 0 0 0 0 0 0 0 0 0 0 0 0 0 0 0 0 0 0 0 0 0 0 0 0 0 0 0 0 0
0 0 0 0 0 0 0 0 0 0 0 0 0 0 0 0 0 0 0 0 0 0 0 0 0 0 0 0 0 0 0 0 0 0 0 0 0 0
0 0 0 0 0 0 0 0 0 0 0 0 0 0 0 0 0 0 0 0 0 0 0 0 0 0 0 0 0 0 0 0 0 0 0 0 0 0
0 0 0 0 0 0 0 0 0 0 0 0 0 0 0 0 0 0 0 0 0 0 0 0 0 0 0 0 0 0 0 0 0 0 0 0 0 0
0 0 0 0 0 0 0 0 0 0 0 0 0 0 0 0 0 0 0 0 0 0 0 0 0 0 0 0 0 0 0 0 0 0 0 0 0 0
0 0 0 0 0 0 0 0 0 0 0 0 0 0 0 0 0 0 0 0 0 0 0 0 0 0 0 0 0 0 0 0 0 0 0 0 0 0
0 0 0 0 0 0 0 0 0 0 0 0 0 0 0 0 0 0 0 0 0 0 0 0 0 0 0 0 0 0 0 0 0 0 0 0 0 0
0 0 0 0 0 0 0 0 0 0 0 0 0 0 0 0 0 0 0 0 0 0 0 0 0 0 0 0 0 0 0 0 0 0 0 0 0 0
0 0 0 0 0 0 0 0 0 0 0 0 0 0 0 0 0 0 0 0 0 0 0 0 0 0 0 0 0 0 0 0 0 0 0 0 0 0
0 0 0 0 0 0 0 0 0 0 0 0 0 0 0 0 0 0 0 0 0 0 0 0 0 0 0 0 0 0 0 0 0 0 0 0 0 0
0 0 0 0 0 0 0 0 0 0 0 0 0 0 0 0 0 0 0 0 0 0 0 0 0 0 0 0 0 0 0 0 0 0 0 0 0 0
0 0 0 0 0 0 0 0 0 0 0 0 0 0 0 0 0 0 0 0 0 0 0 0 0 0 0 0 0 0 0 0 0 0 0 0 0 0
0 0 0 0 0 0 0 0 0 0 0 0 0 0 0 0 0 0 0 0 0 0 0 0 0 0 0 0 0 0 0 0 0 0 0 0 0 0
0 0 0 0 0 0 0 0 0 0 0 0 0 0 0 0 0 0 0 0 0 0 0 0 0 0 0 0 0 0 0 0 0 0 0 0 0 0
0 0 0 0 0 0 0 0 0 0 0 0 0 0 0 0 0 0 0 0 0 0 0 0 0 0 0 0 0 0 0 0 0 0 0 0 0 0
Wind_Speed
5 5 5 4 4 3 2 2 2 2 2 2 1 2 2 2 6 5 4 11 13 13 13 12 12 12 12 11 11 11 10 10 10 9 9 9 10 10
4 4 4 4 3 3 2 2 2 2 3 2 2 1 1 2 5 3 3 8 11 12 13 13 12 12 12 11 11 11 10 10 10 9 9 9 9 9
5 5 5 4 3 2 2 2 2 2 2 2 1 1 1 1 2 2 3 4 6 12 13 13 13 12 12 11 11 11 10 10 10 10 10 9 9 9
5 4 4 4 4 3 2 2 2 1 2 3 2 1 1 1 2 3 3 3 3 8 11 12 11 10 10 11 11 11 11 10 10 9 9 9 10 10
3 3 3 3 3 2 2 2 1 2 2 2 2 2 1 1 1 2 3 2 4 3 7 9 9 10 10 10 9 10 9 9 9 9 9 9 9 10
1 1 1 1 2 2 2 2 2 1 1 1 2 2 1 1 0 1 2 2 3 3 2 3 7 9 10 10 9 9 8 8 8 9 9 9 9 9
1 1 1 2 1 1 1 0 0 0 1 1 1 1 1 2 1 2 2 3 2 2 2 2 2 3 5 7 9 8 8 8 8 8 8 8 8 8
2 1 1 2 2 2 3 2 1 0 1 1 1 1 2 2 2 2 2 3 3 2 2 4 2 2 3 2 5 8 9 10 10 9 9 9 9 9
3 2 1 2 2 1 2 2 1 1 0 1 0 1 1 2 2 2 2 2 3 3 2 3 2 2 2 1 6 9 10 10 9 9 9 9 10 10
5 4 3 3 3 2 2 2 2 2 1 1 1 1 1 1 2 2 2 3 3 2 1 2 2 3 4 2 4 6 7 8 9 9 10 10 10 10
6 6 5 4 5 3 2 2 2 2 3 4 3 2 1 1 2 2 3 3 3 3 2 2 3 4 3 2 2 3 4 6 8 9 10 10 11 9
5 6 10 8 8 7 4 3 3 2 2 1 1 0 0 1 1 2 2 3 3 3 3 3 3 4 3 2 2 2 3 5 8 9 10 10 9 5
5 5 5 7 8 9 7 5 4 3 2 1 1 1 2 2 2 1 1 1 2 3 3 3 3 3 3 4 4 3 3 3 3 4 7 9 8 5
5 4 4 7 8 8 6 6 6 5 2 3 4 3 3 3 2 2 2 1 2 3 3 2 2 2 3 4 5 4 4 4 3 3 2 3 6 8
4 5 4 4 4 4 5 6 6 4 4 4 4 3 2 2 2 2 3 2 3 3 2 2 2 2 3 4 4 4 5 4 3 3 3 3 3 2
3 3 2 2 3 4 4 3 3 4 3 3 3 3 3 3 3 3 3 3 3 3 3 3 3 3 4 4 4 5 4 4 4 3 3 3 3 2
1 1 1 2 3 3 3 3 4 4 4 3 3 3 3 3 3 3 3 3 3 4 4 3 3 3 4 4 4 4 4 4 4 4 4 4 3 2
4 3 4 4 4 4 4 4 4 4 4 4 4 4 4 4 4 3 3 3 4 4 4 4 4 4 4 3 2 3 4 4 5 5 4 4 4 2
4 5 5 5 4 5 5 5 4 4 4 4 4 4 4 4 4 4 3 4 4 4 4 3 3 4 5 6 4 3 4 5 4 4 4 4 4 3
5 5 4 4 4 5 5 5 4 4 4 4 4 5 5 5 5 5 4 4 4 4 4 3 3 4 4 5 5 5 5 4 4 4 5 4 3 2
5 5 5 5 5 5 4 4 4 4 5 4 4 5 5 5 5 5 5 6 5 4 5 4 4 5 4 4 4 4 3 4 4 3 4 4 4 3
5 4 4 5 4 4 4 4 4 4 5 5 5 5 5 5 5 6 5 5 5 5 5 4 4 4 4 4 5 5 5 4 4 5 3 2 2 3
5 4 4 4 4 4 5 6 6 6 6 6 6 6 6 5 5 5 5 5 5 5 6 5 5 4 4 5 5 5 6 5 3 3 2 3 4 6
Wind_Direction
224 224 230 247 247 249 249 234 223 254 264 249 225 201 180 160 166 190 191 195 202 207 212 216 220 224 227 230 233 235 238 241 243 245 249 253 253 253
216 224 226 237 248 237 237 242 229 228 250 247 241 249 198 186 165 188 198 186 203 209 213 216 218 221 224 227 230 232 235 238 240 242 244 247 249 253
220 219 221 228 241 246 240 237 241 226 242 264 259 279 197 180 165 229 226 195 204 211 212 213 216 219 222 226 230 232 233 235 238 241 244 247 250 254
216 218 221 223 221 240 251 246 247 240 231 251 267 278 251 218 189 231 253 245 224 209 208 212 215 218 223 225 227 229 232 235 239 245 250 253 255 258
214 210 218 224 222 221 226 256 269 268 238 235 255 261 251 262 234 248 263 280 278 231 205 209 214 215 221 227 229 230 231 235 240 245 249 252 255 258
204 183 212 221 230 229 218 221 241 276 291 281 272 282 287 290 293 275 288 290 289 293 275 230 219 219 222 227 229 229 229 234 240 244 247 250 253 255
90 90 74 64 80 131 164 148 239 275 282 273 275 291 326 345 343 316 310 306 305 326 322 289 246 234 229 230 232 228 224 230 237 241 245 247 249 253
85 90 89 65 61 95 98 89 81 149 275 274 302 335 342 350 346 334 333 325 315 334 319 300 300 266 249 216 202 211 222 227 231 236 241 246 250 254
64 54 37 47 53 69 107 102 85 57 215 224 294 322 347 356 341 328 324 307 283 284 285 285 296 300 292 238 203 213 221 230 238 243 246 249 253 258
60 52 50 36 15 9 77 83 78 57 75 108 95 48 38 0 344 322 306 301 288 307 335 301 315 307 308 292 229 225 229 237 241 246 250 253 256 258
61 47 44 40 19 40 94 93 84 65 67 84 109 135 116 16 360 353 346 345 335 337 349 320 309 308 300 297 285 245 249 251 252 254 256 258 259 263
73 59 50 46 38 42 59 65 58 31 43 71 89 148 226 13 26 15 1 351 340 330 1 350 333 336 319 323 344 322 281 266 263 263 262 261 264 265
77 67 51 47 52 51 55 54 37 9 354 12 78 66 56 46 48 39 26 354 328 306 327 340 329 332 317 316 320 314 306 301 282 270 261 263 261 243
71 70 68 58 55 49 48 33 21 14 11 32 45 39 33 25 6 352 333 298 263 263 287 317 312 322 318 311 308 314 317 313 306 296 292 278 259 251
75 82 76 61 61 59 47 31 27 29 33 36 33 24 8 352 340 339 336 325 313 319 349 342 324 314 302 297 303 308 311 309 312 322 320 312 297 281
77 102 106 67 41 54 52 44 44 35 29 29 17 5 356 360 4 357 350 342 335 331 332 331 321 306 297 294 296 301 308 309 316 317 318 312 309 313
22 98 85 75 64 59 57 50 43 32 20 12 12 7 1 358 355 358 354 344 341 336 334 334 323 309 297 296 303 309 314 316 320 325 322 314 308 310
36 54 56 49 49 49 48 49 47 35 20 17 17 10 3 359 355 356 352 345 343 339 337 335 334 331 328 324 330 331 330 325 321 318 314 311 311 325
54 57 55 46 39 39 40 38 40 37 22 19 17 7 360 355 354 354 353 353 347 337 334 341 350 352 340 332 326 336 323 315 316 316 314 312 309 318
57 56 52 46 42 35 35 32 31 31 19 13 15 6 359 357 355 352 353 355 344 336 336 348 356 349 327 314 308 307 305 311 318 319 318 313 313 318
55 52 44 42 39 34 30 24 24 27 16 9 15 4 357 356 355 348 346 349 343 338 344 347 337 321 303 306 308 312 321 318 315 312 316 319 320 321
51 54 48 45 40 30 27 20 18 22 14 9 6 357 354 355 351 345 344 342 341 343 343 334 328 326 326 325 322 320 324 328 331 333 329 307 309 316
50 45 47 44 38 27 23 18 19 20 15 6 0 354 352 347 341 339 340 340 339 343 343 335 334 331 330 326 324 323 324 325 321 331 337 311 283 268